Weather History for Eldoret, Kenya

Change the Weather History Date:

Thursday, August 21, 2014

  Actual Average Record
Temperature  
Mean Temperature 60 °F -  
Max Temperature 73 °F - - ()
Min Temperature 46 °F - - ()
Degree Days  
Heating Degree Days 6    
Growing Degree Days 10 (Base 50)    
Moisture  
Dew Point 51 °F    
Average Humidity 77    
Maximum Humidity 100    
Minimum Humidity 29    
Precipitation  
Precipitation 0.00 in - - ()
Sea Level Pressure  
Sea Level Pressure 30.25 in    
Wind  
Wind Speed 6 mph ()    
Max Wind Speed 14 mph    
Max Gust Speed -    
Visibility 6.2 miles    
Events Rain    
T = Trace of Precipitation, MM = Missing Value Source: Averaged Metar Reports

Daily Weather History Graph

Daily Weather History Graph

Search for Another Location

Airport:

Trip Planner

Search our weather history database for the weather conditions in past years. The results will help you decide how hot, cold, wet, or windy it might be!

Date:

Astronomy

Aug. 21, 2014 Rise Set
Actual Time 6:38 AM EAT 6:45 PM EAT
Civil Twilight 6:17 AM EAT 7:07 PM EAT
Nautical Twilight 5:52 AM EAT 7:31 PM EAT
Astronomical Twilight 5:28 AM EAT 7:56 PM EAT
Moon 3:14 AM EAT (8/21) 3:38 PM EAT (8/21)
Length of Visible Light 12h 49m
Length of Day
12h 07m
Waning Crescent, 15% of the Moon is Illuminated
Aug 21
Waning Crescent
Aug 25
New
Sep 2
First Quarter
Sep 9
Full
Sep 16
Last Quarter

Hourly Weather History & Observations

Time (EAT) Temp. Windchill Dew Point Humidity Pressure Visibility Wind Dir Wind Speed Gust Speed Precip Events Conditions
1:00 AM 51.8 °F - 50.0 °F 94% 30.27 in - ENE 9.2 mph - N/A   Clear
2:00 AM 50.0 °F - 48.2 °F 94% 30.24 in - ESE 5.8 mph - N/A   Clear
3:00 AM 50.0 °F - 48.2 °F 94% 30.24 in - ENE 9.2 mph - N/A   Clear
4:00 AM 48.2 °F - 48.2 °F 100% 30.24 in - East 6.9 mph - N/A   Clear
5:00 AM 48.2 °F - 46.4 °F 93% 30.24 in - East 5.8 mph - N/A   Clear
6:00 AM 46.4 °F 44.3 °F 46.4 °F 100% 30.24 in - ESE 4.6 mph - N/A   Clear
7:00 AM 50.0 °F - 48.2 °F 94% 30.27 in 6.2 mi East 5.8 mph - N/A   Scattered Clouds
8:00 AM 53.6 °F - 51.8 °F 94% 30.27 in - ENE 5.8 mph - N/A   Clear
9:00 AM 60.8 °F - 51.8 °F 72% 30.30 in 6.2 mi ENE 4.6 mph - N/A   Partly Cloudy
10:00 AM 66.2 °F - 53.6 °F 64% 30.30 in - North 6.9 mph - N/A   Partly Cloudy
11:00 AM 68.0 °F - 53.6 °F 60% 30.30 in 6.2 mi NNW 5.8 mph - N/A   Scattered Clouds
12:00 PM 71.6 °F - 53.6 °F 53% 30.30 in 6.2 mi SSW 4.6 mph - N/A   Scattered Clouds
1:00 PM 71.6 °F - 53.6 °F 53% - 6.2 mi West 4.6 mph - N/A   Mostly Cloudy
2:00 PM 69.8 °F - 55.4 °F 60% 30.24 in 6.2 mi South 10.4 mph - N/A Rain Rain
3:00 PM 66.2 °F - 53.6 °F 64% 30.21 in 6.2 mi WSW 4.6 mph - N/A   Scattered Clouds
4:00 PM 73.4 °F - 39.2 °F 29% - 6.2 mi NE 13.8 mph - N/A   Scattered Clouds
5:00 PM 69.8 °F - 55.4 °F 60% 30.21 in 6.2 mi WNW 8.1 mph - N/A   Mostly Cloudy
7:00 PM 60.8 °F - 55.4 °F 82% 30.21 in 6.2 mi SSE 3.5 mph - N/A   Mostly Cloudy
8:00 PM 59.0 °F - 53.6 °F 82% 30.21 in 6.2 mi SE 5.8 mph - N/A   Partly Cloudy
9:00 PM 57.2 °F - 53.6 °F 88% 30.24 in - East 8.1 mph - N/A   Clear
10:00 PM 57.2 °F - 53.6 °F 88% 30.24 in - ESE 6.9 mph - N/A   Clear